Volver al catálogo

STARLINK-4208

ActivoComunicacionesVLEO
NORAD 52844·PAYLOAD·🇺🇸 United States

Lanzado Jun 17, 2022 desde Cape Canaveral Space Force Station

Loading…

Próximos Pases (próximas 24 horas)

TLE

ActualizadoSource: CelesTrak SupGP

Época: Sep 14, 2026, 21:44 UTC

1 52844C 22062Q   26257.90604167  .00028081  00000+0  85214-3 0  2578
2 52844  53.1570 253.3467 0001232  86.2682 318.7294 15.33533634    17

Sigue STARLINK-4208 en tiempo real con AllMySat

Download on the App Store